Lid_Strength_Index
1 1 1 1 1 1 2 3 4 4 3 4 4 4 4 5 4 4 4 4 4 5
1 1 1 1 1 3 4 4 5 5 5 4 5 5 5 5 6 5 4 4 5 5
1 1 3 3 5 5 5 5 6 5 6 6 6 5 6 5 6 6 5 5 5 5
3 4 5 6 7 6 6 6 6 6 6 7 6 6 6 6 6 6 6 5 6 5
5 6 7 7 7 6 7 7 7 7 7 7 7 7 7 7 7 7 7 6 6 6
7 7 7 7 7 7 7 7 7 6 6 6 7 7 8 7 7 6 6 6 6 6
7 7 7 8 8 7 6 6 6 6 6 8 9 10 10 10 10 9 7 6 6 5
8 7 7 6 6 5 6 6 6 7 9 10 11 12 11 11 10 9 7 6 6 6
8 7 7 7 6 6 6 7 7 9 10 11 12 13 12 12 11 8 7 7 7 6
8 8 8 7 7 7 8 7 7 7 9 12 12 12 12 12 10 7 6 6 6 6
8 9 9 8 8 7 6 6 6 7 9 11 12 12 12 11 8 6 5 5 5 7
6 7 6 6 6 6 6 7 7 8 9 10 11 11 11 10 7 7 5 5 7 8
5 6 6 7 7 7 7 8 7 8 8 8 10 11 11 10 8 8 7 7 9 9
7 7 7 7 6 6 7 7 7 8 7 8 8 10 10 10 9 10 9 7 8 8